Location: Betz
(49.1556°N, 2.9558°E)
Time: 22:15:33
(UTC+00:00)

SL-08 R/B - Pass Details

Date: 18 September 2019
Orbit: 951 x 1018 km, 82.9° (Epoch: 16 October)

Event Time Altitude Azimuth Distance (km) Brightness Sun altitude
Rises 20:08:16 0° 351° (N) 3,772 8.1 -21.5°
Reaches altitude 10° 20:10:50 10° 353° (N) 2,817 7.4 -21.8°
Maximum altitude 20:17:21 77° 80° (E) 1,047 4.5 -22.7°
Enters shadow 20:19:55 39° 158° (SSE) 1,471 5.0 -23.1°
